Home > Weather > Krems > Past weeks

Flag for Austria Weather for the Past 2 Weeks in Krems, Lower Austria, Austria

Now
57 °F

Partly sunny.


Feels Like: 54 °F
Forecast: 41 / 70 °F
Wind: 14 mph from Southwest

Location: Tulln Airport

Current Time: May 5, 2016 at 3:05:44 PM

Latest Report: May 5, 2016 at 1:50 PM


Visibility: 12 mi

Pressure: 30.27 "Hg

Humidity: 72%

Dew Point: 48 °F

Location of KremsLocation

Historic Weather in Krems — Graph

°F

Krems Temperature Yesterday

Maximum temperature yesterday: 48 °F (at 5:50 AM)
Minimum temperature yesterday: 46 °F (at 7:50 AM)
Average temperature yesterday: 47 °F

High & Low Weather Summary for the Past Weeks

 TemperatureHumidityPressure
High72 °F (Apr 22, 2:50 PM)100% (Apr 27, 7:50 AM)30.33 "Hg (Apr 27, 7:50 AM)
Low30 °F (Apr 28, 5:50 AM)27% (Apr 20, 3:50 PM)29.56 "Hg (Apr 26, 6:50 PM)
Average52 °F63%29.98 "Hg
* Reported Apr 20 1:20 PM — May 5 1:50 PM, Krems, Weather by CustomWeather, © 2016

Note: Actual official high and low records may vary slightly from our data, if they occured in-between our weather recording intervals... More about our weather records

Advertising

Krems Weather History for the Previous 24 Hours

Scroll right to see more
 ConditionsComfort  
Time TempWeatherWind HumidityBarometerVisibility
1:50 PM
Thu, May 5
57 °FPartly sunny.14 mph72%30.27 "Hg12 mi
12:50 PM54 °FPartly sunny.13 mph82%30.30 "Hg9 mi
11:50 AM52 °FBroken clouds.12 mph82%30.30 "Hg5 mi
10:50 AM50 °FMore clouds than sun.13 mph88%30.30 "Hg4 mi
9:50 AM48 °FMore clouds than sun.5 mph87%30.30 "Hg4 mi
8:50 AM46 °FLow clouds.10 mph100%30.30 "Hg4 mi
7:50 AM46 °FLight rain. More clouds than sun.12 mph93%30.30 "Hg4 mi
6:50 AM46 °FPartly sunny.12 mph93%30.30 "Hg5 mi
5:50 AM45 °FLight rain. Passing clouds.9 mph100%30.30 "Hg4 mi
10:50 PM
Wed, May 4
46 °FLight rain. Passing clouds.13 mph87%30.30 "Hg6 mi
9:50 PM48 °FPassing clouds.12 mph82%30.30 "Hg6 mi
8:50 PM48 °FPartly sunny.12 mph82%30.27 "Hg9 mi
7:50 PM48 °FPartly sunny.12 mph87%30.27 "Hg9 mi
6:50 PM48 °FPartly sunny.14 mph87%30.24 "Hg9 mi
5:50 PM48 °FLight rain. Partly sunny.14 mph87%30.24 "Hg9 mi
4:50 PM48 °FPartly sunny.14 mph87%30.21 "Hg9 mi
3:50 PM48 °FPartly sunny.16 mph87%30.21 "Hg9 mi
3:20 PM48 °FPartly sunny.16 mph87%30.21 "Hg9 mi
Weather by CustomWeather, © 2016

See weather overviewHow to use our weather pages